Georgetown, SC

3:14 AM EDT on June 25, 2017 (GMT -0400)
Georgetown County

Weather History for KGGE - January, 2015

Change the Weather History Date:

Thursday, January 8, 2015

  Actual Average Record
Temperature  
Mean Temperature 24 °F -  
Max Temperature 32 °F 60 °F 71 °F (2012)
Min Temperature 17 °F 38 °F 17 °F (2015)
Degree Days  
Heating Degree Days 40    
Moisture  
Dew Point 7 °F    
Average Humidity 47    
Maximum Humidity 80    
Minimum Humidity 30    
Precipitation  
Precipitation 0.00 in - - ()
Sea Level Pressure  
Sea Level Pressure 30.55 in    
Wind  
Wind Speed 11 mph (North)    
Max Wind Speed 21 mph    
Max Gust Speed 29 mph    
Visibility 10 miles    
Events      
Averages and records for this station are not official NWS values.
T = Trace of Precipitation, MM = Missing Value Source: NWS Daily Summary

Daily Weather History Graph

Daily Weather History Graph

Search for Another Location

Airport or City:

Trip Planner

Search our weather history database for the weather conditions in past years. The results will help you decide how hot, cold, wet, or windy it might be!

Date:

Astronomy

Jan. 08, 2015 Rise Set
Actual Time 7:21 AM EST 5:26 PM EST
Civil Twilight 6:54 AM EST 5:53 PM EST
Nautical Twilight 6:23 AM EST 6:24 PM EST
Astronomical Twilight 5:53 AM EST 6:54 PM EST
Moon 8:52 PM EST (1/8) 9:16 AM EST (1/8)
Length of Visible Light 10h 58m
Length of Day
10h 04m
Waning Gibbous, 89% of the Moon is Illuminated
Jan 8
Waning Gibbous
Jan 13
Last Quarter
Jan 20
New
Jan 26
First Quarter
Feb 3
Full

Hourly Weather History & Observations

Time (EST) Temp. Windchill Dew Point Humidity Pressure Visibility Wind Dir Wind Speed Gust Speed Precip Events Conditions
12:15 AM 32.0 °F 20.5 °F 10.4 °F 41% 30.45 in 10.0 mi North 18.4 mph 28.8 mph N/A   Overcast
12:35 AM 30.2 °F 19.8 °F 8.6 °F 40% 30.46 in 10.0 mi North 13.8 mph 26.5 mph N/A   Overcast
12:55 AM 28.4 °F 15.1 °F 8.6 °F 43% 30.47 in 10.0 mi NNW 20.7 mph 25.3 mph N/A   Scattered Clouds
1:15 AM 26.6 °F 14.3 °F 6.8 °F 43% 30.49 in 10.0 mi NNW 16.1 mph 23.0 mph N/A   Clear
1:55 AM 26.6 °F 13.1 °F 5.0 °F 40% 30.51 in 10.0 mi North 19.6 mph 26.5 mph N/A   Clear
2:15 AM 26.6 °F 13.8 °F 5.0 °F 40% 30.52 in 10.0 mi North 17.3 mph 24.2 mph N/A   Clear
2:35 AM 24.8 °F 11.1 °F 5.0 °F 43% 30.53 in 10.0 mi North 18.4 mph 25.3 mph N/A   Clear
2:55 AM 23.0 °F 10.1 °F 5.0 °F 46% 30.54 in 10.0 mi North 15.0 mph 25.3 mph N/A   Clear
3:15 AM 23.0 °F 11.7 °F 5.0 °F 46% 30.55 in 10.0 mi NNW 11.5 mph 20.7 mph N/A   Clear
3:35 AM 23.0 °F 11.1 °F 5.0 °F 46% 30.56 in 10.0 mi NNW 12.7 mph 19.6 mph N/A   Clear
3:55 AM 21.2 °F 9.5 °F 3.2 °F 46% 30.57 in 10.0 mi NNW 11.5 mph 19.6 mph N/A   Clear
4:15 AM 21.2 °F 9.5 °F 3.2 °F 46% 30.57 in 10.0 mi North 11.5 mph 20.7 mph N/A   Clear
4:35 AM 21.2 °F 9.5 °F 3.2 °F 46% 30.57 in 10.0 mi NNW 11.5 mph 17.3 mph N/A   Clear
4:55 AM 21.2 °F 7.8 °F 3.2 °F 46% 30.57 in 10.0 mi North 15.0 mph 21.9 mph N/A   Clear
5:15 AM 19.4 °F 6.0 °F 3.2 °F 49% 30.58 in 10.0 mi North 13.8 mph 20.7 mph N/A   Clear
5:35 AM 19.4 °F 7.9 °F 1.4 °F 46% 30.58 in 10.0 mi North 10.4 mph 18.4 mph N/A   Clear
5:55 AM 19.4 °F 10.4 °F 1.4 °F 46% 30.59 in 10.0 mi North 6.9 mph - N/A   Clear
6:15 AM 19.4 °F 8.6 °F 3.2 °F 49% 30.60 in 10.0 mi North 9.2 mph 16.1 mph N/A   Clear
6:35 AM 19.4 °F 6.0 °F -0.4 °F 42% 30.61 in 10.0 mi North 13.8 mph 19.6 mph N/A   Clear
6:55 AM 17.6 °F 5.7 °F -0.4 °F 45% 30.61 in 10.0 mi North 10.4 mph 16.1 mph N/A   Clear
7:15 AM 17.6 °F 7.3 °F -0.4 °F 45% 30.62 in 10.0 mi North 8.1 mph - N/A   Clear
7:35 AM 17.6 °F 6.4 °F -0.4 °F 45% 30.62 in 10.0 mi North 9.2 mph - N/A   Clear
7:55 AM 17.6 °F 4.3 °F -0.4 °F 45% 30.62 in 10.0 mi North 12.7 mph - N/A   Clear
8:15 AM 19.4 °F 5.5 °F -0.4 °F 42% 30.62 in 10.0 mi NNE 15.0 mph 19.6 mph N/A   Clear
8:35 AM 19.4 °F 6.0 °F -0.4 °F 42% 30.63 in 10.0 mi North 13.8 mph 19.6 mph N/A   Clear
8:55 AM 21.2 °F 10.9 °F -0.4 °F 39% 30.64 in 10.0 mi North 9.2 mph - N/A   Clear
9:15 AM 21.2 °F 10.9 °F -0.4 °F 39% 30.65 in 10.0 mi North 9.2 mph 17.3 mph N/A   Clear
9:35 AM 21.2 °F 8.9 °F -0.4 °F 39% 30.65 in 10.0 mi North 12.7 mph 18.4 mph N/A   Clear
9:55 AM 23.0 °F 13.1 °F -0.4 °F 36% 30.64 in 10.0 mi North 9.2 mph - N/A   Clear
10:15 AM 23.0 °F 12.4 °F 1.4 °F 39% 30.65 in 10.0 mi North 10.4 mph - N/A   Clear
10:35 AM 23.0 °F 14.7 °F 1.4 °F 39% 30.66 in 10.0 mi North 6.9 mph - N/A   Clear
10:55 AM 24.8 °F 15.3 °F 1.4 °F 36% 30.66 in 10.0 mi NNE 9.2 mph - N/A   Clear
11:15 AM 26.6 °F 20.0 °F 1.4 °F 34% 30.65 in 10.0 mi NNW 5.8 mph - N/A   Clear
11:35 AM 26.6 °F 17.5 °F 1.4 °F 34% 30.63 in 10.0 mi NNE 9.2 mph - N/A   Clear
11:55 AM 26.6 °F 18.2 °F 1.4 °F 34% 30.61 in 10.0 mi North 8.1 mph - N/A   Clear
12:15 PM 28.4 °F 20.4 °F 1.4 °F 31% 30.61 in 10.0 mi North 8.1 mph - N/A   Clear
12:35 PM 28.4 °F 19.1 °F 3.2 °F 34% 30.58 in 10.0 mi NNE 10.4 mph - N/A   Clear
12:55 PM 30.2 °F 26.7 °F 3.2 °F 32% 30.58 in 10.0 mi NW 3.5 mph - N/A   Clear
1:15 PM 30.2 °F 23.4 °F 3.2 °F 32% 30.58 in 10.0 mi NNE 6.9 mph - N/A   Clear
1:35 PM 30.2 °F 22.6 °F 3.2 °F 32% 30.56 in 10.0 mi North 8.1 mph - N/A   Clear
1:55 PM 32.0 °F 25.6 °F 3.2 °F 30% 30.54 in 10.0 mi NNE 6.9 mph - N/A   Clear
2:15 PM 32.0 °F 23.0 °F 3.2 °F 30% 30.53 in 10.0 mi NE 11.5 mph 17.3 mph N/A   Clear
2:55 PM 32.0 °F 27.5 °F 3.2 °F 30% 30.54 in 10.0 mi ENE 4.6 mph - N/A   Clear
3:15 PM 32.0 °F - 3.2 °F 30% 30.53 in 10.0 mi Calm Calm - N/A   Clear
3:35 PM 32.0 °F 26.4 °F 5.0 °F 32% 30.52 in 10.0 mi ENE 5.8 mph - N/A   Clear
3:55 PM 32.0 °F 27.5 °F 5.0 °F 32% 30.52 in 10.0 mi East 4.6 mph - N/A   Clear
4:15 PM 32.0 °F 28.7 °F 3.2 °F 30% 30.51 in 10.0 mi NE 3.5 mph - N/A   Clear
4:35 PM 32.0 °F 27.5 °F 5.0 °F 32% 30.50 in 10.0 mi NE 4.6 mph - N/A   Clear
4:55 PM 32.0 °F 28.7 °F 10.4 °F 41% 30.50 in 10.0 mi SE 3.5 mph - N/A   Clear
5:15 PM 30.2 °F 24.3 °F 10.4 °F 44% 30.51 in 10.0 mi ESE 5.8 mph - N/A   Clear
5:35 PM 28.4 °F 24.6 °F 12.2 °F 51% 30.52 in 10.0 mi ESE 3.5 mph - N/A   Clear
5:55 PM 28.4 °F - 12.2 °F 51% 30.52 in 10.0 mi Calm Calm - N/A   Clear
6:15 PM 26.6 °F - 14.0 °F 59% 30.53 in 10.0 mi Calm Calm - N/A   Clear
6:35 PM 26.6 °F 21.2 °F 14.0 °F 59% 30.54 in 10.0 mi SW 4.6 mph - N/A   Clear
6:55 PM 23.0 °F 17.0 °F 14.0 °F 68% 30.56 in 10.0 mi WSW 4.6 mph - N/A   Clear
7:15 PM 24.8 °F - 15.8 °F 69% 30.56 in 10.0 mi Calm Calm - N/A   Clear
7:35 PM 24.8 °F - 15.8 °F 69% 30.57 in 10.0 mi Calm Calm - N/A   Scattered Clouds
7:55 PM 23.0 °F - 17.6 °F 80% 30.57 in 10.0 mi Calm Calm - N/A   Clear
8:15 PM 23.0 °F - 15.8 °F 74% 30.58 in 10.0 mi Calm Calm - N/A   Clear
8:35 PM 26.6 °F 19.1 °F 19.4 °F 74% 30.55 in 10.0 mi NW 6.9 mph - N/A   Scattered Clouds
8:55 PM 26.6 °F 19.1 °F 17.6 °F 69% 30.54 in 10.0 mi NNW 6.9 mph - N/A   Overcast
9:15 PM 26.6 °F 22.6 °F 15.8 °F 64% 30.52 in 10.0 mi NW 3.5 mph - N/A   Scattered Clouds
9:35 PM 26.6 °F 21.2 °F 14.0 °F 59% 30.52 in 10.0 mi WNW 4.6 mph - N/A   Mostly Cloudy
9:55 PM 26.6 °F 22.6 °F 14.0 °F 59% 30.50 in 10.0 mi North 3.5 mph - N/A   Mostly Cloudy
10:15 PM 26.6 °F 21.2 °F 14.0 °F 59% 30.49 in 10.0 mi NNW 4.6 mph - N/A   Mostly Cloudy
10:35 PM 26.6 °F 22.6 °F 14.0 °F 59% 30.47 in 10.0 mi North 3.5 mph - N/A   Scattered Clouds
10:55 PM 26.6 °F - 14.0 °F 59% 30.44 in 10.0 mi Calm Calm - N/A   Clear
11:15 PM 24.8 °F - 15.8 °F 69% 30.43 in 10.0 mi Calm Calm - N/A   Clear
11:35 PM 24.8 °F - 12.2 °F 59% 30.42 in 10.0 mi Calm Calm - N/A   Clear
11:55 PM 23.0 °F - 17.6 °F 80% 30.40 in 10.0 mi Calm Calm - N/A   Clear